[[{"header":{"parameterUnit":"m.s-1","parameterCategory":1,"la1":30.2991,"la2":30.254,"lo1":-89.0895,"lo2":-89.0444,"dy":0.0017,"dx":0.0017,"nx":28,"ny":28,"refTime":"2025-03-03T03:00:00:Z","depth":0,"parameterNumber":2,"parameterNumberName":"U-component_of_WINDS"},"data":[0,0,0,0,0,0,0,0,0,0,0,0,0,0,0,0,0,0,0,0,0,0,0,0,0,0,0,0,0,0,0,0,0,0,0,0,0,0,0,0,0,0,0,0,0,0,0,0,0,0,0,0,0,0,0,0,0,0,-4.6493,-4.6493,0,-4.6509,-4.6509,-4.6509,-4.6376,-4.6372,-4.6368,-4.6365,-4.6384,-4.6388,-4.6392,0,0,0,0,0,0,0,0,0,0,0,0,0,-4.6349,-4.6353,-4.6493,-4.6493,-4.6493,-4.6509,-4.6509,-4.6509,-4.6376,-4.6372,-4.6367,-4.6363,-4.6383,-4.6387,-4.6392,0,0,0,0,0,0,0,0,0,0,0,0,0,-4.6393,-4.6354,-4.6493,-4.6429,-4.6423,-4.6509,-4.6509,-4.6509,-4.6377,-4.6372,-4.6366,-4.6361,-4.6381,-4.6387,-4.6393,-4.6541,0,0,-4.6411,-4.6414,0,0,0,0,0,0,0,0,-4.6391,-4.6399,-4.6438,-4.6433,-4.6427,-4.6434,-4.6465,-4.652,-4.6379,-4.6395,-4.6365,-4.6358,-4.6405,-4.6409,-4.6424,-4.6542,-4.6543,-4.6411,-4.6415,-4.6418,-4.6419,0,0,0,0,0,0,0,-4.6388,-4.6397,-4.6499,-4.6439,-4.6432,-4.64,-4.64,-4.6475,-4.6431,-4.6393,-4.6383,-4.6387,-4.6401,-4.6419,-4.6424,-4.6543,-4.6411,-4.6417,-4.642,-4.6423,-4.6785,-4.6791,0,0,0,0,0,0,-4.6393,-4.6396,-4.6498,-4.6499,-4.6395,-4.6407,-4.6407,-4.6438,-4.643,-4.6424,-4.6392,-4.6381,-4.6412,-4.6417,-4.6424,-4.6598,-4.6418,-4.6423,-4.6427,-4.6779,-4.6787,-4.6793,0,0,0,0,0,0,-4.6391,-4.6404,-4.6498,-4.6445,-4.6454,-4.6415,-4.6451,-4.6441,-4.6458,-4.6429,-4.6421,-4.6418,-4.6407,-4.6416,-4.6513,-4.6597,-4.6426,-4.6431,-4.6772,-4.6782,-4.679,-4.6948,0,0,0,0,0,0,-4.6387,-4.6404,-4.6459,-4.6447,-4.6458,-4.6587,-4.6456,-4.6445,-4.6469,-4.6455,-4.6451,-4.6445,-4.6404,-4.6505,-4.6519,-4.6602,-4.6436,-4.6764,-4.6776,-4.6787,-4.6935,-4.6961,-4.6984,0,0,0,0,0,-4.6382,-4.6503,-4.6462,-4.6476,-4.6526,-4.6592,-4.6598,-4.6547,-4.6476,-4.6532,-4.6513,-4.6445,-4.6586,-4.6516,-4.6531,-4.6617,-4.6759,-4.6773,-4.6786,-4.6924,-4.6956,-4.6983,0,0,0,0,0,0,-4.6526,-4.65,-4.6455,-4.6575,-4.6587,-4.6569,-4.6638,-4.6582,-4.6614,-4.66,-4.6535,-4.6536,-4.6645,-4.664,-4.6563,-4.6761,-4.666,-4.6677,-4.676,-4.679,-4.6814,-4.6813,-4.6441,0,0,0,0,0,-4.6572,-4.6626,-4.6601,-4.671,-4.6718,-4.6677,-4.6704,-4.6663,-4.6673,-4.6677,-4.6665,-4.6678,-4.6725,-4.6757,-4.6798,-4.6934,-4.6932,-4.7,-4.7025,-4.7045,-4.7061,-4.7133,-4.7164,-4.6838,-4.6838,-4.6838,0,0,-4.6667,-4.6659,-4.6698,-4.6738,-4.6742,-4.6801,-4.6682,-4.6749,-4.6792,-4.6687,-4.6779,-4.6771,-4.6781,-4.6899,-4.695,-4.6899,-4.715,-4.7062,-4.7079,-4.7083,-4.715,-4.7181,-4.7209,-4.6847,-4.6846,-4.6844,0,0,-4.687,-4.6869,-4.696,-4.6967,-4.6974,-4.6947,-4.6969,-4.696,-4.6951,-4.7041,-4.6964,-4.7015,-4.7097,-4.7108,-4.7124,-4.7333,-4.7272,-4.7348,-4.7475,-4.7547,-4.7572,-4.7595,-4.767,-4.7698,-4.7364,-4.7364,-4.7364,0,-4.6987,-4.7071,-4.7014,-4.7087,-4.7107,-4.7015,-4.7107,-4.7116,-4.7138,-4.7155,-4.7097,-4.7198,-4.7198,-4.7317,-4.7368,-4.7384,-4.7408,-4.7348,-4.7573,-4.7595,-4.7615,-4.7686,-4.7715,-4.7373,-4.7372,-4.7371,-4.7371,0,-4.7216,-4.7276,-4.7349,-4.7371,-4.74,-4.7482,-4.7438,-4.7474,-4.7432,-4.7411,-4.7506,-4.7503,-4.7542,-4.7568,-4.7527,-4.7682,-4.765,-4.7584,-4.7481,-4.7656,-4.7722,-4.7749,-4.7387,-4.7383,-4.7381,-4.7378,0,0,-4.7509,-4.7499,-4.7527,-4.7537,-4.7539,-4.7585,-4.7664,-4.7702,-4.7735,-4.7753,-4.7818,-4.789,-4.7829,-4.7847,-4.7807,-4.787,-4.8037,-4.7796,-4.7795,-4.7842,-4.8209,-4.8259,-4.8291,-4.7996,-4.8001,-4.8005,-4.8208,0,-4.7708,-4.784,-4.7791,-4.7928,-4.7984,-4.7897,-4.7966,-4.7976,-4.7959,-4.8004,-4.7985,-4.8038,-4.7953,-4.7963,-4.8021,-4.8004,-4.811,-4.7989,-4.8057,-4.8061,-4.8058,-4.8325,-4.8378,-4.8569,-4.8233,-4.8237,-4.8241,0,-4.7956,-4.7985,-4.8127,-4.8121,-4.8142,-4.8205,-4.8236,-4.8281,-4.829,-4.8273,-4.8295,-4.8242,-4.832,-4.8217,-4.8324,-4.8243,-4.8268,-4.8265,-4.8271,-4.8275,-4.8161,-4.8338,-4.8629,-4.8658,-4.828,-4.8277,-4.8274,0,-4.8157,-4.8231,-4.8326,-4.8336,-4.8331,-4.8377,-4.8378,-4.8381,-4.8408,-4.8436,-4.8453,-4.849,-4.8511,-4.8542,-4.8501,-4.8429,-4.8614,-4.8508,-4.8603,-4.8605,-4.8646,-4.8644,-4.8946,-4.8662,-4.8662,-4.8661,-4.8661,0,-4.8384,-4.8475,-4.8416,-4.8474,-4.8574,-4.8517,-4.8618,-4.8608,-4.8613,-4.8669,-4.8596,-4.8651,-4.8593,-4.8642,-4.861,-4.8704,-4.8714,-4.8704,-4.8694,-4.871,-4.8712,-4.8726,-4.8712,-4.8669,-4.8667,-4.8666,-4.8665,0,-4.8625,-4.8589,-4.8687,-4.8674,-4.8673,-4.8747,-4.8736,-4.8791,-4.8769,-4.8841,-4.8854,-4.882,-4.8875,-4.8836,-4.8891,-4.8869,-4.8993,-4.8965,-4.899,-4.8983,-4.908,-4.9072,-4.9402,-4.9443,-4.9133,-4.9136,-4.9139,0,-4.8772,-4.884,-4.8835,-4.8867,-4.8871,-4.8924,-4.8951,-4.8898,-4.8929,-4.8946,-4.8999,-4.9047,-4.9082,-4.9173,-4.9154,-4.9196,-4.9168,-4.9281,-4.9174,-4.9189,-4.9171,-4.9167,-4.9174,-4.9303,-4.9307,-4.931,-4.9312,0,-4.9038,-4.9017,-4.9058,-4.9094,-4.9128,-4.9153,-4.9173,-4.9204,-4.9151,-4.919,-4.9244,-4.9272,-4.9327,-4.9376,-4.9411,-4.9411,-4.9354,-4.9346,-4.937,-4.9388,-4.94,-4.9395,-4.905,-4.9339,-4.9336,-4.9334,-4.9333,-4.9332,-4.9236,-4.9293,-4.9298,-4.9347,-4.9356,-4.9377,-4.9427,-4.9412,-4.9456,-4.9497,-4.9464,-4.9529,-4.9538,-4.9578,-4.9587,-4.9638,-4.9592,-4.9627,-4.9636,-4.9645,-4.9659,-4.9392,-4.9644,-4.9643,-4.9642,-4.9642,-4.9641,0,-4.9498,-4.9498,-4.9543,-4.9573,-4.9612,-4.9554,-4.9573,-4.961,-4.9668,-4.9681,-4.9718,-4.9781,-4.9828,-4.9814,-4.9856,-4.99,-4.9875,-4.9913,-4.9909,-4.9911,-4.9698,-4.9673,-4.9933,-4.9933,-4.9933,-4.9933,-4.9933,-4.9933,-4.9639,-4.9732,-4.9712,-4.981,-4.9808,-4.9872,-4.9888,-4.9907,-4.9917,-4.9991,-5.003,-5.002,-5.0022,-5.0064,-5.0106,-5.01,-5.0119,-5.0168,-5.0153,-4.9954,-4.9926,-4.9898,-4.9874,-5.0172,-5.0173,-5.0361,-5.0363,-5.0364]},{"header":{"parameterUnit":"m.s-1","parameterCategory":1,"la1":30.2991,"la2":30.254,"lo1":-89.0895,"lo2":-89.0444,"dy":0.0017,"dx":0.0017,"nx":28,"ny":28,"refTime":"2025-03-03T03:00:00:Z","depth":0,"parameterNumber":3,"parameterNumberName":"V-component_of_WINDS"},"data":[0,0,0,0,0,0,0,0,0,0,0,0,0,0,0,0,0,0,0,0,0,0,0,0,0,0,0,0,0,0,0,0,0,0,0,0,0,0,0,0,0,0,0,0,0,0,0,0,0,0,0,0,0,0,0,0,0,0,-0.5639,-0.5639,0,-0.5624,-0.5623,-0.5623,-0.5603,-0.5603,-0.5603,-0.5602,-0.5586,-0.5586,-0.5586,0,0,0,0,0,0,0,0,0,0,0,0,0,-0.565,-0.565,-0.5639,-0.5639,-0.5639,-0.5624,-0.5623,-0.5623,-0.5603,-0.5603,-0.5602,-0.5602,-0.5586,-0.5586,-0.5586,0,0,0,0,0,0,0,0,0,0,0,0,0,-0.5641,-0.565,-0.5639,-0.5627,-0.5626,-0.5624,-0.5623,-0.5623,-0.5603,-0.5603,-0.5602,-0.5602,-0.5586,-0.5586,-0.5586,-0.5594,0,0,-0.5585,-0.5585,0,0,0,0,0,0,0,0,-0.5642,-0.5641,-0.5629,-0.5628,-0.5627,-0.5615,-0.5621,-0.5613,-0.5603,-0.5612,-0.5602,-0.5602,-0.5596,-0.5595,-0.5593,-0.5593,-0.5593,-0.5585,-0.5585,-0.5585,-0.5585,0,0,0,0,0,0,0,-0.5642,-0.5641,-0.5633,-0.5629,-0.5627,-0.5622,-0.562,-0.562,-0.5607,-0.5611,-0.561,-0.5608,-0.5595,-0.5593,-0.5592,-0.5592,-0.5585,-0.5585,-0.5585,-0.5585,-0.5597,-0.5597,0,0,0,0,0,0,-0.5645,-0.5642,-0.5634,-0.5633,-0.5633,-0.5622,-0.562,-0.5619,-0.5607,-0.5604,-0.5608,-0.5607,-0.5594,-0.5593,-0.5592,-0.56,-0.5585,-0.5585,-0.5584,-0.5596,-0.5597,-0.5598,0,0,0,0,0,0,-0.5645,-0.5644,-0.5634,-0.5637,-0.5635,-0.5622,-0.5622,-0.5619,-0.5617,-0.5605,-0.5602,-0.5609,-0.5593,-0.5592,-0.5593,-0.5599,-0.5584,-0.5584,-0.5596,-0.5597,-0.5597,-0.5617,0,0,0,0,0,0,-0.5646,-0.5645,-0.5648,-0.5637,-0.5635,-0.5637,-0.5622,-0.5619,-0.5617,-0.5615,-0.5605,-0.5602,-0.5593,-0.5594,-0.5593,-0.5598,-0.5584,-0.5595,-0.5596,-0.5597,-0.5615,-0.5618,-0.562,0,0,0,0,0,-0.5646,-0.5655,-0.5648,-0.5648,-0.5639,-0.5637,-0.5636,-0.5625,-0.5618,-0.5621,-0.5612,-0.5603,-0.5598,-0.5594,-0.5593,-0.5599,-0.5595,-0.5596,-0.5597,-0.5614,-0.5617,-0.562,0,0,0,0,0,0,-0.5667,-0.5653,-0.5646,-0.5651,-0.5645,-0.5634,-0.5637,-0.5629,-0.5625,-0.5623,-0.5609,-0.5607,-0.561,-0.5604,-0.5599,-0.5605,-0.5595,-0.5596,-0.5609,-0.5611,-0.5614,-0.5615,-0.5584,0,0,0,0,0,-0.5672,-0.5672,-0.5659,-0.5665,-0.5663,-0.565,-0.5649,-0.5641,-0.5634,-0.5632,-0.5623,-0.5617,-0.5614,-0.5612,-0.5609,-0.5614,-0.5611,-0.5617,-0.562,-0.5622,-0.5622,-0.5623,-0.5626,-0.5601,-0.5601,-0.5601,0,0,-0.5683,-0.5675,-0.5676,-0.5669,-0.5664,-0.5663,-0.5649,-0.5649,-0.5648,-0.5632,-0.5632,-0.5626,-0.5617,-0.562,-0.5621,-0.5616,-0.5628,-0.5623,-0.5625,-0.5624,-0.5625,-0.5627,-0.5629,-0.5601,-0.5601,-0.5601,0,0,-0.5703,-0.5697,-0.5701,-0.5695,-0.5687,-0.5678,-0.5679,-0.5668,-0.5663,-0.5663,-0.565,-0.5649,-0.5644,-0.5638,-0.5635,-0.565,-0.564,-0.5649,-0.5661,-0.5662,-0.5664,-0.5666,-0.567,-0.5672,-0.565,-0.565,-0.565,0,-0.5717,-0.5716,-0.5704,-0.5704,-0.5701,-0.5686,-0.5688,-0.5683,-0.5674,-0.5672,-0.5666,-0.5659,-0.5653,-0.5653,-0.5657,-0.5655,-0.5654,-0.565,-0.5665,-0.5666,-0.5667,-0.5671,-0.5673,-0.5651,-0.5651,-0.5651,-0.5651,0,-0.5733,-0.5732,-0.5736,-0.5727,-0.5724,-0.5726,-0.5713,-0.5712,-0.5703,-0.5695,-0.5695,-0.5686,-0.568,-0.568,-0.5672,-0.5678,-0.5675,-0.5667,-0.5657,-0.5671,-0.5674,-0.5676,-0.5653,-0.5652,-0.5652,-0.5652,0,0,-0.5767,-0.575,-0.5751,-0.5746,-0.5735,-0.5734,-0.5734,-0.5728,-0.5726,-0.572,-0.5719,-0.5715,-0.5707,-0.5703,-0.5694,-0.5695,-0.5705,-0.5686,-0.5686,-0.5689,-0.5711,-0.5717,-0.5719,-0.5699,-0.5699,-0.57,-0.5711,0,-0.5783,-0.5783,-0.5771,-0.5774,-0.5772,-0.5757,-0.5757,-0.575,-0.5742,-0.5738,-0.5729,-0.5726,-0.5716,-0.5713,-0.5714,-0.5704,-0.571,-0.5703,-0.5697,-0.5697,-0.57,-0.5721,-0.5727,-0.5738,-0.5713,-0.5713,-0.5713,0,-0.5803,-0.5797,-0.58,-0.5787,-0.5785,-0.5786,-0.5778,-0.5776,-0.5766,-0.576,-0.5755,-0.5744,-0.5743,-0.5733,-0.573,-0.5726,-0.5723,-0.5717,-0.5718,-0.5716,-0.5706,-0.5719,-0.5742,-0.5743,-0.5715,-0.5715,-0.5715,0,-0.5825,-0.5818,-0.5819,-0.5815,-0.58,-0.58,-0.5794,-0.5784,-0.5781,-0.5774,-0.5771,-0.5765,-0.5761,-0.5755,-0.5743,-0.5737,-0.5741,-0.573,-0.5735,-0.5735,-0.5736,-0.5736,-0.5758,-0.5735,-0.5735,-0.5735,-0.5735,0,-0.5845,-0.5847,-0.5828,-0.5828,-0.583,-0.5815,-0.5817,-0.5809,-0.58,-0.5798,-0.5784,-0.5782,-0.5766,-0.5762,-0.5752,-0.575,-0.5749,-0.5743,-0.5741,-0.5744,-0.5745,-0.5742,-0.574,-0.5736,-0.5736,-0.5735,-0.5735,0,-0.5871,-0.5858,-0.5857,-0.5843,-0.5839,-0.5841,-0.5828,-0.5827,-0.5818,-0.5815,-0.5813,-0.5798,-0.5793,-0.5779,-0.5771,-0.5764,-0.5764,-0.576,-0.5767,-0.5765,-0.577,-0.577,-0.5791,-0.5792,-0.5769,-0.5769,-0.5769,0,-0.5884,-0.5885,-0.587,-0.5867,-0.5861,-0.5858,-0.5854,-0.5839,-0.5835,-0.5824,-0.5824,-0.5817,-0.5811,-0.5802,-0.579,-0.5783,-0.5777,-0.5785,-0.5776,-0.5779,-0.5776,-0.5776,-0.5776,-0.5787,-0.5788,-0.5788,-0.5788,0,-0.5908,-0.5901,-0.5896,-0.5888,-0.5884,-0.5877,-0.587,-0.5868,-0.5852,-0.5848,-0.5842,-0.5837,-0.5827,-0.582,-0.581,-0.5803,-0.5792,-0.5791,-0.5791,-0.5795,-0.5799,-0.5796,-0.5772,-0.579,-0.579,-0.579,-0.579,-0.579,-0.5927,-0.5926,-0.5916,-0.591,-0.5902,-0.5895,-0.5893,-0.5883,-0.5878,-0.5868,-0.586,-0.5854,-0.5843,-0.5829,-0.5822,-0.5817,-0.5812,-0.5813,-0.5813,-0.5814,-0.5815,-0.58,-0.5815,-0.5815,-0.5815,-0.5815,-0.5815,0,-0.5949,-0.5941,-0.5936,-0.5926,-0.5921,-0.5911,-0.5902,-0.5898,-0.5893,-0.5884,-0.5878,-0.587,-0.5862,-0.5849,-0.584,-0.5839,-0.5833,-0.5837,-0.5836,-0.5835,-0.582,-0.582,-0.5841,-0.5841,-0.5841,-0.5841,-0.5841,-0.5841,-0.5961,-0.5959,-0.5951,-0.5945,-0.5936,-0.593,-0.5926,-0.5919,-0.5911,-0.5903,-0.5896,-0.5888,-0.5876,-0.5867,-0.5859,-0.5855,-0.5852,-0.5857,-0.5852,-0.5838,-0.5836,-0.5834,-0.5834,-0.5857,-0.5857,-0.5866,-0.5866,-0.5866]}]]